Change the Weather History Date:

Saturday, August 17, 2013

  Actual Average Record
Temperature  
Mean Temperature 66 °F -  
Max Temperature 82 °F 69 °F - ()
Min Temperature 50 °F 50 °F - ()
Cooling Degree Days 1    
Growing Degree Days 16 (Base 50)    
Moisture  
Dew Point 50 °F    
Average Humidity 60    
Maximum Humidity 94    
Minimum Humidity 21    
Precipitation  
Precipitation 0.00 in 0.09 in - ()
Sea Level Pressure  
Sea Level Pressure 30.08 in    
Wind  
Wind Speed 3 mph ()    
Max Wind Speed 7 mph    
Max Gust Speed -    
Visibility 16.7 miles    
Events      
T = Trace of Precipitation, MM = Missing Value Source: Averaged Metar Reports

Daily Weather History Graph

Daily Weather History Graph

Search for Another Location

Airport or City:

Trip Planner

Search our weather history database for the weather conditions in past years. The results will help you decide how hot, cold, wet, or windy it might be!

Date:

Astronomy

Aug. 17, 2013 Rise Set
Actual Time 5:33 AM CEST 7:55 PM CEST
Civil Twilight 4:57 AM CEST 8:31 PM CEST
Nautical Twilight 4:12 AM CEST 9:15 PM CEST
Astronomical Twilight 3:19 AM CEST 10:07 PM CEST
Moon 5:05 PM CEST (8/17) 1:05 AM CEST (8/17)
Length of Visible Light 15h 33m
Length of Day
14h 22m
Waxing Gibbous, 82% of the Moon is Illuminated
Aug 17
Waxing Gibbous
Aug 21
Full
Aug 28
Last Quarter
Sep 5
New
Sep 12
First Quarter

Hourly Weather History & Observations

Time (CEST) Temp. Dew Point Humidity Pressure Visibility Wind Dir Wind Speed Gust Speed Precip Events Conditions
12:00 AM 57.2 °F 48.2 °F 72% 30.15 in - Variable 1.2 mph - N/A   Clear
12:30 AM 55.4 °F 48.2 °F 77% 30.15 in - NE 3.5 mph - N/A   Clear
1:00 AM 55.4 °F 48.2 °F 77% 30.15 in - NE 4.6 mph - N/A   Clear
1:30 AM 55.4 °F 48.2 °F 77% 30.15 in - NNE 4.6 mph - N/A   Clear
2:00 AM 54 °F 48 °F 74% 30.17 in 19 mi NNE 4.5 mph - -  
2:00 AM 53.6 °F 48.2 °F 82% 30.15 in - NE 3.5 mph - N/A   Clear
2:30 AM 53.6 °F 48.2 °F 82% 30.15 in - NE 3.5 mph - N/A   Clear
3:00 AM 51.8 °F 48.2 °F 88% 30.12 in - NNE 4.6 mph - N/A   Clear
3:30 AM 51.8 °F 48.2 °F 88% 30.12 in - NE 5.8 mph - N/A   Clear
4:00 AM 53.6 °F 48.2 °F 82% 30.12 in - NE 3.5 mph - N/A   Clear
4:30 AM 51.8 °F 48.2 °F 88% 30.12 in - ENE 3.5 mph - N/A   Clear
5:00 AM 52 °F 48 °F 81% 30.14 in 19 mi NNE 6.7 mph - -   Clear
5:00 AM 51.8 °F 48.2 °F 88% 30.12 in - NE 4.6 mph - N/A   Clear
5:30 AM 51.8 °F 48.2 °F 88% 30.12 in - NE 4.6 mph - N/A   Clear
6:00 AM 51.8 °F 50.0 °F 94% 30.12 in - ENE 3.5 mph - N/A   Clear
6:30 AM 53.6 °F 50.0 °F 88% 30.12 in - ENE 3.5 mph - N/A   Clear
7:00 AM 55.4 °F 50.0 °F 82% 30.12 in - NE 4.6 mph - N/A   Clear
7:30 AM 57.2 °F 51.8 °F 82% 30.12 in - ENE 5.8 mph - N/A   Clear
8:00 AM 60 °F 51 °F 64% 30.13 in 12 mi ENE 6.7 mph - -   Clear
8:00 AM 59.0 °F 50.0 °F 72% 30.12 in - ENE 6.9 mph - N/A   Clear
8:30 AM 60.8 °F 51.8 °F 72% 30.12 in - ENE 4.6 mph - N/A   Clear
9:00 AM 64.4 °F 51.8 °F 64% 30.12 in - East 3.5 mph - N/A   Clear
9:30 AM 66.2 °F 53.6 °F 64% 30.12 in - ENE 4.6 mph - N/A   Clear
10:00 AM 68.0 °F 51.8 °F 56% 30.09 in - ENE 4.6 mph - N/A   Clear
10:30 AM 71.6 °F 51.8 °F 50% 30.09 in - East 4.6 mph - N/A   Clear
11:00 AM 73 °F 52 °F 37% 30.09 in 19 mi NE 4.5 mph - -  
11:00 AM 73.4 °F 51.8 °F 47% 30.09 in - East 4.6 mph - N/A   Clear
11:30 AM 75.2 °F 51.8 °F 44% 30.09 in - Variable 2.3 mph - N/A   Clear
12:00 PM 77.0 °F 50.0 °F 39% 30.09 in - Variable 3.5 mph - N/A   Clear
12:30 PM 78.8 °F 50.0 °F 36% 30.09 in - Variable 3.5 mph - N/A   Clear
1:00 PM 78.8 °F 50.0 °F 36% 30.06 in - Variable 3.5 mph - N/A   Clear
1:30 PM 78.8 °F 46.4 °F 32% 30.06 in - Variable 3.5 mph - N/A   Clear
2:00 PM 80 °F 47 °F 21% 30.04 in 25 mi WSW 6.7 mph - -  
2:00 PM 80.6 °F 44.6 °F 28% 30.06 in - Variable 4.6 mph - N/A   Clear
2:30 PM 80.6 °F 46.4 °F 30% 30.06 in - Variable 2.3 mph - N/A   Clear
3:00 PM 80.6 °F 46.4 °F 30% 30.04 in - Variable 3.5 mph - N/A   Clear
3:30 PM 82.4 °F 48.2 °F 30% 30.04 in - Variable 3.5 mph - N/A   Clear
4:00 PM 82.4 °F 48.2 °F 30% 30.04 in - Variable 2.3 mph - N/A   Clear
4:30 PM 82.4 °F 50.0 °F 32% 30.01 in - Variable 2.3 mph - N/A   Clear
5:00 PM 82 °F 48 °F 21% 29.99 in 25 mi WSW 4.5 mph - -  
5:00 PM 82.4 °F 48.2 °F 30% 30.01 in - Variable 2.3 mph - N/A   Clear
5:30 PM 82.4 °F 48.2 °F 30% 30.01 in - Variable 1.2 mph - N/A   Clear
6:00 PM 80.6 °F 48.2 °F 32% 30.01 in - Variable 1.2 mph - N/A   Clear
6:30 PM 80.6 °F 50.0 °F 34% 30.01 in - Variable 1.2 mph - N/A   Clear
7:00 PM 78.8 °F 53.6 °F 42% 30.01 in - Variable 2.3 mph - N/A   Clear
7:30 PM 75.2 °F 55.4 °F 50% 30.04 in - Variable 2.3 mph - N/A   Clear
8:00 PM 72 °F 56 °F 48% 30.02 in 19 mi NNE 2.2 mph - -   Scattered Clouds
8:00 PM 71.6 °F 53.6 °F 53% 30.04 in - Variable 2.3 mph - N/A   Clear
8:30 PM 68.0 °F 57.2 °F 68% 30.04 in - Calm Calm - N/A   Clear
9:00 PM 66.2 °F 55.4 °F 68% 30.04 in - Calm Calm - N/A   Clear
9:30 PM 64.4 °F 55.4 °F 73% 30.04 in - Calm Calm - N/A   Clear
10:00 PM 62.6 °F 55.4 °F 77% 30.04 in - Calm Calm - N/A   Clear
10:30 PM 62.6 °F 55.4 °F 77% 30.04 in - Calm Calm - N/A   Clear
11:00 PM 61 °F 54 °F 71% 30.04 in 12 mi Calm Calm - -  
11:00 PM 60.8 °F 55.4 °F 82% 30.04 in - Calm Calm - N/A   Clear
11:30 PM 60.8 °F 55.4 °F 82% 30.04 in - Calm Calm - N/A   Clear